CST,Max TemperatureF,Mean TemperatureF,Min TemperatureF,Max Dew PointF,MeanDew PointF,Min DewpointF,Max Humidity, Mean Humidity, Min Humidity, Max Sea Level PressureIn, Mean Sea Level PressureIn, Min Sea Level PressureIn, Max VisibilityMiles, Mean VisibilityMiles, Min VisibilityMiles, Max Wind SpeedMPH, Mean Wind SpeedMPH, Max Gust SpeedMPH,PrecipitationIn, CloudCover, Events, WindDirDegrees
2012-12-1,44,38,33,43,37,32,100,93,76,30.11,29.88,29.74,5,2,0,13,8,,0.00,8,Fog,126
2012-12-2,41,38,35,41,35,34,100,94,87,30.01,29.94,29.81,4,2,0,12,5,17,0.00,7,Fog,106
2012-12-3,59,47,35,55,43,30,100,89,61,29.89,29.75,29.55,10,5,0,21,9,25,0.00,5,Fog-Rain,164
2012-12-4,41,31,21,30,19,10,70,59,44,30.39,30.13,29.89,10,10,10,21,11,33,0.00,0,,280
2012-12-5,35,24,14,18,12,10,86,61,41,30.42,30.32,30.01,10,10,10,15,6,23,0.00,1,,107
2012-12-6,46,39,30,37,32,25,93,76,61,29.97,29.86,29.78,10,10,7,15,11,21,0.10,2,Rain,248
2012-12-7,32,28,23,27,23,19,93,78,64,30.04,30.02,29.97,10,9,2,9,6,,0.00,4,Snow,315
2012-12-8,33,26,19,27,24,18,100,87,75,30.07,30.04,30.02,10,8,1,9,2,,0.00,2,Snow,61
2012-12-9,32,30,28,30,29,25,100,93,75,30.08,29.92,29.80,10,3,0,16,9,21,0.18,6,Snow,58
2012-12-10,28,20,10,27,15,9,93,83,68,29.91,29.88,29.81,10,7,1,14,8,,0.00,2,Snow,280
2012-12-11,21,10,0,14,10,-6,93,83,74,30.04,29.88,29.80,10,6,0,13,5,,0.00,4,Fog-Snow,203
2012-12-12,41,20,0,32,17,-6,100,72,48,30.05,29.97,29.87,10,7,0,20,5,23,0.00,5,Fog-Snow,157
2012-12-13,37,28,19,21,19,18,100,63,48,30.12,30.01,29.96,10,10,5,16,7,22,0.00,0,,200
2012-12-14,35,26,17,30,22,14,100,85,60,30.16,30.05,29.87,10,6,0,13,3,,0.00,3,Fog-Snow,82
2012-12-15,35,34,33,36,34,30,100,96,81,29.87,29.61,29.51,7,2,0,15,8,20,0.49,8,Fog-Rain,94
2012-12-16,33,28,23,34,30,21,100,98,86,29.78,29.65,29.51,10,5,0,15,7,18,0.02,8,Fog-Rain-Snow,275
2012-12-17,23,22,21,21,19,18,93,88,80,29.78,29.75,29.71,10,9,2,12,6,16,0.00,8,Snow,279
2012-12-18,28,24,19,23,21,18,100,89,74,29.84,29.71,29.66,10,7,5,9,2,,0.00,7,,80
2012-12-19,32,29,26,28,27,23,100,88,80,30.02,29.95,29.84,10,6,3,8,2,,0.00,8,Snow,185
2012-12-20,30,24,15,30,23,10,100,84,73,29.94,29.82,29.71,10,5,1,28,13,36,0.03,7,Snow,327
2012-12-21,21,14,6,9,6,3,85,71,58,30.23,30.14,29.93,10,10,10,21,12,24,0.00,0,,285
2012-12-22,26,14,3,12,7,0,92,76,51,30.20,30.05,29.96,10,10,7,8,2,,0.00,0,,181
2012-12-23,21,18,14,14,11,9,86,73,63,30.12,30.06,30.00,10,10,10,14,8,18,0.00,3,Snow,349
2012-12-24,21,14,6,12,7,0,79,67,57,30.24,30.07,29.98,10,10,10,12,6,,0.00,5,,321
2012-12-25,14,7,0,1,-2,-6,85,72,57,30.45,30.38,30.25,10,10,10,8,5,,0.00,1,,283
2012-12-26,19,10,1,9,2,-4,85,74,58,30.38,30.30,30.24,10,10,10,6,2,,0.00,1,,312
2012-12-27,23,12,1,14,7,-4,85,77,63,30.25,30.21,30.15,10,9,2,6,1,,0.00,3,Snow,350
2012-12-28,23,21,19,19,17,16,93,87,80,30.14,30.05,29.98,10,4,2,7,3,,0.00,8,Snow,356
2012-12-29,21,14,8,18,12,7,93,82,68,30.15,30.05,29.97,10,8,1,12,6,,0.00,7,Snow,252
2012-12-30,21,10,0,14,7,-4,92,79,68,30.20,30.07,29.88,10,8,5,8,4,,0.00,1,,124
2012-12-31,19,10,1,14,5,-6,93,71,58,30.23,30.10,29.90,10,10,7,20,10,24,0.00,2,Snow,281